Time,TemperatureF,DewpointF,PressureIn,WindDirection,WindDirectionDegrees,WindSpeedMPH,WindSpeedGustMPH,Humidity,HourlyPrecipIn,Conditions,Clouds,dailyrainin,SolarRadiationWatts/m^2,SoftwareType,DateUTC
2013-01-21 00:05:00,34.4,27.3,30.09,NW,316,0.0,0.0,75,0.00,BKN,SCT,0.00,0.0,WeatherDisplay:10.37,2013-01-21 05:05:00,
2013-01-21 00:10:00,34.3,27.2,30.09,NW,316,0.0,0.0,75,0.00,BKN,SCT,0.00,0.0,WeatherDisplay:10.37,2013-01-21 05:10:00,
2013-01-21 00:15:00,34.0,26.9,30.09,NW,316,0.0,1.0,75,0.00,BKN,SCT,0.00,0.0,WeatherDisplay:10.37,2013-01-21 05:15:00,
2013-01-21 00:20:00,33.7,26.9,30.09,NW,316,0.0,0.0,76,0.00,BKN,SCT,0.00,0.0,WeatherDisplay:10.37,2013-01-21 05:20:00,
2013-01-21 00:25:00,33.4,26.6,30.08,NW,316,0.0,0.0,76,0.00,BKN,SCT,0.00,0.0,WeatherDisplay:10.37,2013-01-21 05:25:00,
2013-01-21 00:30:00,33.2,26.8,30.08,NW,316,0.0,0.0,77,0.00,BKN,SCT,0.00,0.0,WeatherDisplay:10.37,2013-01-21 05:30:00,
2013-01-21 00:35:00,33.1,26.7,30.08,NW,316,0.0,0.0,77,0.00,BKN,SCT,0.00,0.0,WeatherDisplay:10.37,2013-01-21 05:35:00,
2013-01-21 00:40:00,32.9,26.5,30.08,NW,316,0.0,0.0,77,0.00,BKN,SCT,0.00,0.0,WeatherDisplay:10.37,2013-01-21 05:40:00,
2013-01-21 00:45:00,32.8,26.4,30.08,NW,316,0.0,0.0,77,0.00,BKN,SCT,0.00,0.0,WeatherDisplay:10.37,2013-01-21 05:45:00,
2013-01-21 00:50:00,32.6,26.2,30.08,NW,316,0.0,0.0,77,0.00,BKN,SCT,0.00,0.0,WeatherDisplay:10.37,2013-01-21 05:50:00,
2013-01-21 00:55:00,32.4,26.3,30.08,NW,316,0.0,0.0,78,0.00,BKN,SCT,0.00,0.0,WeatherDisplay:10.37,2013-01-21 05:55:00,
2013-01-21 01:00:00,32.2,26.1,30.08,NW,316,0.0,0.0,78,0.00,BKN,SCT,0.00,0.0,WeatherDisplay:10.37,2013-01-21 06:00:00,
2013-01-21 01:10:00,31.9,26.1,30.08,NW,316,0.0,0.0,79,0.00,BKN,SCT,0.00,0.0,WeatherDisplay:10.37,2013-01-21 06:10:00,
2013-01-21 01:15:00,31.7,25.7,30.08,NW,316,0.0,0.0,78,0.00,BKN,SCT,0.00,0.0,WeatherDisplay:10.37,2013-01-21 06:15:00,
2013-01-21 01:25:00,31.4,25.7,30.08,NW,316,0.0,0.0,79,0.00,BKN,SCT,0.00,0.0,WeatherDisplay:10.37,2013-01-21 06:25:00,
2013-01-21 01:35:00,31.1,25.4,30.08,NW,316,0.0,0.0,79,0.00,BKN,SCT,0.00,0.0,WeatherDisplay:10.37,2013-01-21 06:35:00,
2013-01-21 01:40:00,31.0,25.2,30.08,NW,316,0.0,0.0,79,0.00,BKN,SCT,0.00,0.0,WeatherDisplay:10.37,2013-01-21 06:40:00,
2013-01-21 01:45:00,30.9,25.4,30.08,NW,316,0.0,0.0,80,0.00,BKN,SCT,0.00,0.0,WeatherDisplay:10.37,2013-01-21 06:45:00,
2013-01-21 01:50:00,30.7,25.3,30.08,NW,316,0.0,1.0,80,0.00,BKN,SCT,0.00,0.0,WeatherDisplay:10.37,2013-01-21 06:50:00,
2013-01-21 02:00:00,30.5,25.4,30.08,NW,316,0.0,0.0,81,0.00,BKN,SCT,0.00,0.0,WeatherDisplay:10.37,2013-01-21 07:00:00,
2013-01-21 02:05:00,30.4,25.3,30.08,NW,316,0.0,0.0,81,0.00,BKN,SCT,0.00,0.0,WeatherDisplay:10.37,2013-01-21 07:05:00,
2013-01-21 02:10:00,30.3,25.2,30.08,NW,316,0.0,1.0,81,0.00,BKN,SCT,0.00,0.0,WeatherDisplay:10.37,2013-01-21 07:10:00,
2013-01-21 02:15:00,30.1,25.3,30.08,NW,316,0.0,1.0,82,0.00,BKN,SCT,0.00,0.0,WeatherDisplay:10.37,2013-01-21 07:15:00,
2013-01-21 02:20:00,30.1,25.2,30.08,NW,316,0.0,0.0,82,0.00,BKN,SCT,0.00,0.0,WeatherDisplay:10.37,2013-01-21 07:20:00,
2013-01-21 02:25:00,29.9,25.1,30.08,NW,316,0.0,0.0,82,0.00,BKN,SCT,0.00,0.0,WeatherDisplay:10.37,2013-01-21 07:25:00,
2013-01-21 02:30:00,29.8,25.0,30.08,NW,316,0.0,0.0,82,0.00,BKN,SCT,0.00,0.0,WeatherDisplay:10.37,2013-01-21 07:30:00,
2013-01-21 02:40:00,29.6,24.8,30.08,NW,316,0.0,0.0,82,0.00,BKN,SCT,0.00,0.0,WeatherDisplay:10.37,2013-01-21 07:40:00,
2013-01-21 02:45:00,29.4,24.6,30.08,NW,316,0.0,0.0,82,0.00,BKN,SCT,0.00,0.0,WeatherDisplay:10.37,2013-01-21 07:45:00,
2013-01-21 02:50:00,29.3,24.5,30.08,NW,316,0.0,0.0,82,0.00,BKN,SCT,0.00,0.0,WeatherDisplay:10.37,2013-01-21 07:50:00,
2013-01-21 02:55:00,29.2,24.7,30.08,NW,316,0.0,0.0,83,0.00,BKN,SCT,0.00,0.0,WeatherDisplay:10.37,2013-01-21 07:55:00,
2013-01-21 03:00:00,29.2,24.7,30.08,NW,316,0.0,0.0,83,0.00,BKN,SCT,0.00,0.0,WeatherDisplay:10.37,2013-01-21 08:00:00,
2013-01-21 03:05:00,29.1,24.6,30.08,NW,316,0.0,0.0,83,0.00,BKN,SCT,0.00,0.0,WeatherDisplay:10.37,2013-01-21 08:05:00,
2013-01-21 03:10:00,29.0,24.5,30.08,NW,316,0.0,0.0,83,0.00,BKN,SCT,0.00,0.0,WeatherDisplay:10.37,2013-01-21 08:10:00,
2013-01-21 03:15:00,28.9,24.4,30.08,NW,316,0.0,0.0,83,0.00,BKN,SCT,0.00,0.0,WeatherDisplay:10.37,2013-01-21 08:15:00,
2013-01-21 03:20:00,28.8,24.3,30.08,NW,316,0.0,0.0,83,0.00,BKN,SCT,0.00,0.0,WeatherDisplay:10.37,2013-01-21 08:20:00,
2013-01-21 03:25:00,28.8,24.3,30.08,NW,316,0.0,0.0,83,0.00,BKN,SCT,0.00,0.0,WeatherDisplay:10.37,2013-01-21 08:25:00,
2013-01-21 03:30:00,28.7,24.2,30.08,NW,316,0.0,0.0,83,0.00,BKN,SCT,0.00,0.0,WeatherDisplay:10.37,2013-01-21 08:30:00,
2013-01-21 03:35:00,28.7,24.2,30.07,NW,316,0.0,0.0,83,0.00,BKN,SCT,0.00,0.0,WeatherDisplay:10.37,2013-01-21 08:35:00,
2013-01-21 03:40:00,28.6,24.4,30.07,NW,316,0.0,0.0,84,0.00,BKN,SCT,0.00,0.0,WeatherDisplay:10.37,2013-01-21 08:40:00,
2013-01-21 03:45:00,28.5,24.3,30.07,NW,316,0.0,0.0,84,0.00,BKN,SCT,0.00,0.0,WeatherDisplay:10.37,2013-01-21 08:45:00,
2013-01-21 03:50:00,28.4,24.2,30.06,NW,316,0.0,0.0,84,0.00,BKN,SCT,0.00,0.0,WeatherDisplay:10.37,2013-01-21 08:50:00,
2013-01-21 03:55:00,28.3,24.1,30.07,NW,316,0.0,1.0,84,0.00,BKN,SCT,0.00,0.0,WeatherDisplay:10.37,2013-01-21 08:55:00,
2013-01-21 04:00:00,28.3,24.4,30.06,NW,316,0.0,0.0,85,0.00,BKN,SCT,0.00,0.0,WeatherDisplay:10.37,2013-01-21 09:00:00,
2013-01-21 04:05:00,28.2,24.3,30.06,NW,316,0.0,1.0,85,0.00,BKN,SCT,0.00,0.0,WeatherDisplay:10.37,2013-01-21 09:05:00,
2013-01-21 04:10:00,28.2,24.3,30.07,NW,316,0.0,1.0,85,0.00,BKN,SCT,0.00,0.0,WeatherDisplay:10.37,2013-01-21 09:10:00,
2013-01-21 04:15:00,28.2,24.3,30.07,NW,316,0.0,0.0,85,0.00,BKN,SCT,0.00,0.0,WeatherDisplay:10.37,2013-01-21 09:15:00,
2013-01-21 04:20:00,28.1,24.2,30.07,NW,316,0.0,0.0,85,0.00,BKN,SCT,0.00,0.0,WeatherDisplay:10.37,2013-01-21 09:20:00,
2013-01-21 04:30:00,28.0,24.1,30.07,NW,316,0.0,0.0,85,0.00,BKN,SCT,0.00,0.0,WeatherDisplay:10.37,2013-01-21 09:30:00,
2013-01-21 04:35:00,27.9,24.0,30.07,NW,316,0.0,0.0,85,0.00,BKN,SCT,0.00,0.0,WeatherDisplay:10.37,2013-01-21 09:35:00,
2013-01-21 04:40:00,27.9,24.0,30.07,NW,316,0.0,0.0,85,0.00,BKN,SCT,0.00,0.0,WeatherDisplay:10.37,2013-01-21 09:40:00,
2013-01-21 04:45:00,27.8,23.9,30.07,NW,316,0.0,0.0,85,0.00,BKN,SCT,0.00,0.0,WeatherDisplay:10.37,2013-01-21 09:45:00,
2013-01-21 04:50:00,27.7,23.8,30.07,NW,316,0.0,0.0,85,0.00,BKN,SCT,0.00,0.0,WeatherDisplay:10.37,2013-01-21 09:50:00,
2013-01-21 04:55:00,27.5,23.6,30.06,NW,316,0.0,0.0,85,0.00,BKN,SCT,0.00,0.0,WeatherDisplay:10.37,2013-01-21 09:55:00,
2013-01-21 05:00:00,27.5,23.6,30.06,NW,316,0.0,0.0,85,0.00,BKN,SCT,0.00,0.0,WeatherDisplay:10.37,2013-01-21 10:00:00,
2013-01-21 05:05:00,27.4,23.5,30.06,NW,316,0.0,0.0,85,0.00,BKN,SCT,0.00,0.0,WeatherDisplay:10.37,2013-01-21 10:05:00,
2013-01-21 05:10:00,27.2,23.3,30.06,NW,316,0.0,0.0,85,0.00,BKN,SCT,0.00,0.0,WeatherDisplay:10.37,2013-01-21 10:10:00,
2013-01-21 05:15:00,27.2,23.6,30.06,NW,316,0.0,0.0,86,0.00,BKN,SCT,0.00,0.0,WeatherDisplay:10.37,2013-01-21 10:15:00,
2013-01-21 05:20:00,27.1,23.5,30.06,NW,316,0.0,0.0,86,0.00,BKN,SCT,0.00,0.0,WeatherDisplay:10.37,2013-01-21 10:20:00,
2013-01-21 05:25:00,27.0,23.4,30.06,NW,316,0.0,0.0,86,0.00,BKN,SCT,0.00,0.0,WeatherDisplay:10.37,2013-01-21 10:25:00,
2013-01-21 05:30:00,27.0,23.1,30.06,NW,316,0.0,0.0,85,0.00,BKN,SCT,0.00,0.0,WeatherDisplay:10.37,2013-01-21 10:30:00,
2013-01-21 05:35:00,26.9,23.3,30.06,NW,316,0.0,0.0,86,0.00,BKN,SCT,0.00,0.0,WeatherDisplay:10.37,2013-01-21 10:35:00,
2013-01-21 05:40:00,26.9,23.3,30.06,NW,316,0.0,0.0,86,0.00,BKN,SCT,0.00,0.0,WeatherDisplay:10.37,2013-01-21 10:40:00,
2013-01-21 05:45:00,26.9,23.3,30.06,NW,316,0.0,0.0,86,0.00,BKN,SCT,0.00,0.0,WeatherDisplay:10.37,2013-01-21 10:45:00,
2013-01-21 05:50:00,26.8,23.2,30.06,NW,316,0.0,0.0,86,0.00,BKN,SCT,0.00,0.0,WeatherDisplay:10.37,2013-01-21 10:50:00,
2013-01-21 05:55:00,26.8,23.1,30.06,NW,316,0.0,0.0,86,0.00,BKN,SCT,0.00,0.0,WeatherDisplay:10.37,2013-01-21 10:55:00,
2013-01-21 06:00:00,26.7,23.1,30.06,NW,316,0.0,0.0,86,0.00,BKN,SCT,0.00,0.0,WeatherDisplay:10.37,2013-01-21 11:00:00,
2013-01-21 06:05:00,26.7,23.1,30.06,NW,316,0.0,0.0,86,0.00,BKN,SCT,0.00,0.0,WeatherDisplay:10.37,2013-01-21 11:05:00,
2013-01-21 06:10:00,26.6,23.0,30.06,NW,316,0.0,0.0,86,0.00,BKN,SCT,0.00,0.0,WeatherDisplay:10.37,2013-01-21 11:10:00,
2013-01-21 06:15:00,26.6,23.0,30.06,NW,315,0.0,0.0,86,0.00,BKN,SCT,0.00,0.0,WeatherDisplay:10.37,2013-01-21 11:15:00,
2013-01-21 06:20:00,26.5,22.9,30.06,NW,316,0.0,0.0,86,0.00,BKN,SCT,0.00,0.0,WeatherDisplay:10.37,2013-01-21 11:20:00,
2013-01-21 06:30:00,26.4,22.8,30.06,NW,316,0.0,0.0,86,0.00,BKN,SCT,0.00,0.0,WeatherDisplay:10.37,2013-01-21 11:30:00,
2013-01-21 06:35:00,26.4,22.8,30.07,NW,316,0.0,0.0,86,0.00,BKN,SCT,0.00,0.0,WeatherDisplay:10.37,2013-01-21 11:35:00,
2013-01-21 06:40:00,26.4,22.8,30.06,NW,316,0.0,0.0,86,0.00,BKN,SCT,0.00,0.0,WeatherDisplay:10.37,2013-01-21 11:40:00,
2013-01-21 06:45:00,26.3,22.7,30.07,NW,316,0.0,0.0,86,0.00,BKN,SCT,0.00,0.0,WeatherDisplay:10.37,2013-01-21 11:45:00,
2013-01-21 06:50:00,26.3,22.9,30.07,NW,316,0.0,0.0,87,0.00,BKN,SCT,0.00,0.0,WeatherDisplay:10.37,2013-01-21 11:50:00,
2013-01-21 06:55:00,26.2,22.9,30.06,NW,316,0.0,0.0,87,0.00,BKN,SCT,0.00,0.0,WeatherDisplay:10.37,2013-01-21 11:55:00,
2013-01-21 07:00:00,26.2,22.9,30.07,NW,316,0.0,0.0,87,0.00,BKN,SCT,0.00,0.0,WeatherDisplay:10.37,2013-01-21 12:00:00,
2013-01-21 07:05:00,26.2,22.8,30.07,NW,316,0.0,0.0,87,0.00,BKN,SCT,0.00,0.0,WeatherDisplay:10.37,2013-01-21 12:05:00,
2013-01-21 07:10:00,26.1,22.8,30.07,NW,316,0.0,0.0,87,0.00,BKN,SCT,0.00,0.0,WeatherDisplay:10.37,2013-01-21 12:10:00,
2013-01-21 07:15:00,26.0,22.7,30.07,NW,316,0.0,0.0,87,0.00,BKN,SCT,0.00,0.0,WeatherDisplay:10.37,2013-01-21 12:15:00,
2013-01-21 07:20:00,25.9,22.6,30.07,NW,316,0.0,0.0,87,0.00,BKN,SCT,0.00,0.0,WeatherDisplay:10.37,2013-01-21 12:20:00,
2013-01-21 07:25:00,25.8,22.4,30.07,NW,316,0.0,0.0,87,0.00,BKN,SCT,0.00,0.0,WeatherDisplay:10.37,2013-01-21 12:25:00,
2013-01-21 07:30:00,25.7,22.4,30.07,NW,316,0.0,0.0,87,0.00,BKN,SCT,0.00,0.0,WeatherDisplay:10.37,2013-01-21 12:30:00,
2013-01-21 07:35:00,25.6,22.3,30.07,NW,316,0.0,0.0,87,0.00,BKN,SCT,0.00,7.0,WeatherDisplay:10.37,2013-01-21 12:35:00,
2013-01-21 07:40:00,25.5,22.2,30.07,NW,316,0.0,0.0,87,0.00,BKN,SCT,0.00,9.0,WeatherDisplay:10.37,2013-01-21 12:40:00,
2013-01-21 07:45:00,25.4,22.1,30.06,NW,316,0.0,0.0,87,0.00,BKN,SCT,0.00,11.0,WeatherDisplay:10.37,2013-01-21 12:45:00,
2013-01-21 07:50:00,25.5,22.2,30.06,NW,316,0.0,0.0,87,0.00,BKN,SCT,0.00,18.0,WeatherDisplay:10.37,2013-01-21 12:50:00,
2013-01-21 07:55:00,25.5,22.2,30.07,NW,316,0.0,0.0,87,0.00,,SCT,0.00,42.0,WeatherDisplay:10.37,2013-01-21 12:55:00,
2013-01-21 08:00:00,25.6,22.3,30.06,NW,316,0.0,0.0,87,0.00,,SCT,0.00,60.0,WeatherDisplay:10.37,2013-01-21 13:00:00,
2013-01-21 08:05:00,25.8,22.5,30.06,NW,315,0.0,0.0,87,0.00,,SCT,0.00,76.0,WeatherDisplay:10.37,2013-01-21 13:05:00,
2013-01-21 08:10:00,26.2,23.1,30.07,NW,315,0.0,1.0,88,0.00,,SCT,0.00,91.0,WeatherDisplay:10.37,2013-01-21 13:10:00,
2013-01-21 08:15:00,26.6,23.5,30.07,NW,315,0.0,0.0,88,0.00,,SCT,0.00,107.0,WeatherDisplay:10.37,2013-01-21 13:15:00,
2013-01-21 08:20:00,27.0,23.9,30.07,NW,316,0.0,0.0,88,0.00,,SCT,0.00,132.0,WeatherDisplay:10.37,2013-01-21 13:20:00,
2013-01-21 08:25:00,27.5,24.4,30.07,NW,316,0.0,0.0,88,0.00,,SCT,0.00,148.0,WeatherDisplay:10.37,2013-01-21 13:25:00,
2013-01-21 08:30:00,28.1,25.2,30.07,NW,316,0.0,0.0,89,0.00,,SCT,0.00,171.0,WeatherDisplay:10.37,2013-01-21 13:30:00,
2013-01-21 08:35:00,28.7,25.9,30.07,NW,316,0.0,0.0,89,0.00,,SCT,0.00,199.0,WeatherDisplay:10.37,2013-01-21 13:35:00,
2013-01-21 08:40:00,29.6,26.8,30.07,NW,316,0.0,0.0,89,0.00,,SCT,0.00,206.0,WeatherDisplay:10.37,2013-01-21 13:40:00,
2013-01-21 08:45:00,30.6,27.7,30.07,NW,316,0.0,0.0,89,0.00,SCT,SCT,0.00,213.0,WeatherDisplay:10.37,2013-01-21 13:45:00,
2013-01-21 08:50:00,31.5,28.9,30.07,NW,316,0.0,0.0,90,0.00,CLR,SCT,0.00,227.0,WeatherDisplay:10.37,2013-01-21 13:50:00,
2013-01-21 08:55:00,32.3,29.7,30.07,NW,316,0.0,0.0,90,0.00,CLR,SCT,0.00,243.0,WeatherDisplay:10.37,2013-01-21 13:55:00,
2013-01-21 09:00:00,33.0,30.4,30.07,NW,316,0.0,0.0,90,0.00,CLR,SCT,0.00,257.0,WeatherDisplay:10.37,2013-01-21 14:00:00,
2013-01-21 09:05:00,33.7,31.1,30.07,NW,316,0.0,0.0,90,0.00,CLR,SCT,0.00,271.0,WeatherDisplay:10.37,2013-01-21 14:05:00,
2013-01-21 09:10:00,34.4,31.8,30.07,North,357,0.0,0.0,90,0.00,CLR,SCT,0.00,287.0,WeatherDisplay:10.37,2013-01-21 14:10:00,
2013-01-21 09:15:00,35.1,32.5,30.07,NNE,23,0.0,1.0,90,0.00,CLR,SCT,0.00,301.0,WeatherDisplay:10.37,2013-01-21 14:15:00,
2013-01-21 09:20:00,35.7,33.1,30.07,North,9,0.0,0.0,90,0.00,CLR,SCT,0.00,315.0,WeatherDisplay:10.37,2013-01-21 14:20:00,
2013-01-21 09:25:00,36.4,33.7,30.07,North,9,0.0,0.0,90,0.00,CLR,SCT,0.00,327.0,WeatherDisplay:10.37,2013-01-21 14:25:00,
2013-01-21 09:30:00,36.9,34.3,30.07,North,9,0.0,1.0,90,0.00,CLR,SCT,0.00,343.0,WeatherDisplay:10.37,2013-01-21 14:30:00,
2013-01-21 09:35:00,37.5,34.5,30.07,North,9,0.0,1.0,89,0.00,CLR,SCT,0.00,357.0,WeatherDisplay:10.37,2013-01-21 14:35:00,
2013-01-21 09:40:00,38.1,35.1,30.07,North,9,0.0,1.0,89,0.00,CLR,SCT,0.00,371.0,WeatherDisplay:10.37,2013-01-21 14:40:00,
2013-01-21 09:45:00,38.7,35.5,30.07,North,9,0.0,1.0,88,0.00,CLR,SCT,0.00,381.0,WeatherDisplay:10.37,2013-01-21 14:45:00,
2013-01-21 09:50:00,39.4,35.8,30.07,North,9,0.0,1.0,87,0.00,CLR,SCT,0.00,396.0,WeatherDisplay:10.37,2013-01-21 14:50:00,
2013-01-21 09:55:00,40.0,36.1,30.07,North,9,0.0,2.0,86,0.00,CLR,SCT,0.00,406.0,WeatherDisplay:10.37,2013-01-21 14:55:00,
2013-01-21 10:00:00,40.6,35.8,30.08,North,9,1.0,3.0,83,0.00,CLR,SCT,0.00,418.0,WeatherDisplay:10.37,2013-01-21 15:00:00,
2013-01-21 10:05:00,41.3,35.6,30.08,North,5,0.0,4.0,80,0.00,CLR,SCT,0.00,429.0,WeatherDisplay:10.37,2013-01-21 15:05:00,
2013-01-21 10:10:00,42.0,35.3,30.08,North,2,2.0,4.0,77,0.00,CLR,SCT,0.00,441.0,WeatherDisplay:10.37,2013-01-21 15:10:00,
2013-01-21 10:15:00,42.6,35.3,30.08,North,0,0.0,2.0,75,0.00,CLR,SCT,0.00,454.0,WeatherDisplay:10.37,2013-01-21 15:15:00,
2013-01-21 10:20:00,43.4,35.3,30.08,NW,325,2.0,5.0,73,0.00,CLR,SCT,0.00,468.0,WeatherDisplay:10.37,2013-01-21 15:20:00,
2013-01-21 10:25:00,44.2,35.7,30.08,WNW,302,2.0,4.0,72,0.00,CLR,SCT,0.00,480.0,WeatherDisplay:10.37,2013-01-21 15:25:00,
2013-01-21 10:30:00,45.0,34.7,30.08,WSW,239,3.0,8.0,67,0.00,CLR,SCT,0.00,489.0,WeatherDisplay:10.37,2013-01-21 15:30:00,
2013-01-21 10:35:00,45.8,34.7,30.08,SW,226,3.0,8.0,65,0.00,CLR,SCT,0.00,501.0,WeatherDisplay:10.37,2013-01-21 15:35:00,
2013-01-21 10:40:00,46.4,33.7,30.07,SW,235,1.0,7.0,61,0.00,CLR,SCT,0.00,512.0,WeatherDisplay:10.37,2013-01-21 15:40:00,
2013-01-21 10:45:00,47.0,34.2,30.07,WSW,241,1.0,6.0,61,0.00,CLR,SCT,0.00,522.0,WeatherDisplay:10.37,2013-01-21 15:45:00,
2013-01-21 10:50:00,47.5,34.3,30.07,SW,235,1.0,5.0,60,0.00,CLR,SCT,0.00,531.0,WeatherDisplay:10.37,2013-01-21 15:50:00,
2013-01-21 10:55:00,48.0,34.3,30.07,SW,231,1.0,4.0,59,0.00,CLR,SCT,0.00,541.0,WeatherDisplay:10.37,2013-01-21 15:55:00,
2013-01-21 11:00:00,48.5,34.8,30.07,SW,226,3.0,6.0,59,0.00,CLR,SCT,0.00,550.0,WeatherDisplay:10.37,2013-01-21 16:00:00,
2013-01-21 11:05:00,49.0,34.0,30.07,SW,220,3.0,9.0,56,0.00,CLR,SCT,0.00,557.0,WeatherDisplay:10.37,2013-01-21 16:05:00,
2013-01-21 11:10:00,49.4,33.9,30.06,SW,221,6.0,12.0,55,0.00,CLR,SCT,0.00,568.0,WeatherDisplay:10.37,2013-01-21 16:10:00,
2013-01-21 11:15:00,49.8,33.3,30.06,SSW,213,3.0,9.0,53,0.00,CLR,SCT,0.00,575.0,WeatherDisplay:10.37,2013-01-21 16:15:00,
2013-01-21 11:20:00,50.2,33.2,30.06,SW,215,7.0,12.0,52,0.00,CLR,SCT,0.00,584.0,WeatherDisplay:10.37,2013-01-21 16:20:00,
2013-01-21 11:25:00,50.5,33.1,30.06,SW,226,6.0,12.0,51,0.00,CLR,SCT,0.00,589.0,WeatherDisplay:10.37,2013-01-21 16:25:00,
2013-01-21 11:30:00,50.9,33.4,30.06,SW,224,7.0,12.0,51,0.00,CLR,SCT,0.00,598.0,WeatherDisplay:10.37,2013-01-21 16:30:00,
2013-01-21 11:35:00,51.3,33.2,30.06,SW,219,5.0,11.0,50,0.00,CLR,SCT,0.00,605.0,WeatherDisplay:10.37,2013-01-21 16:35:00,
2013-01-21 11:40:00,51.5,33.5,30.05,SW,231,9.0,15.0,50,0.00,CLR,SCT,0.00,610.0,WeatherDisplay:10.37,2013-01-21 16:40:00,
2013-01-21 11:45:00,51.8,32.7,30.05,WSW,244,9.0,13.0,48,0.00,CLR,SCT,0.00,612.0,WeatherDisplay:10.37,2013-01-21 16:45:00,
2013-01-21 11:50:00,52.0,32.9,30.04,WSW,243,7.0,14.0,48,0.00,CLR,SCT,0.00,619.0,WeatherDisplay:10.37,2013-01-21 16:50:00,
2013-01-21 11:55:00,52.3,33.7,30.04,SW,232,6.0,12.0,49,0.00,CLR,SCT,0.00,624.0,WeatherDisplay:10.37,2013-01-21 16:55:00,
2013-01-21 12:00:00,52.5,33.9,30.03,SW,231,3.0,12.0,49,0.00,CLR,SCT,0.00,626.0,WeatherDisplay:10.37,2013-01-21 17:00:00,
2013-01-21 12:05:00,52.9,33.2,30.03,SW,227,7.0,12.0,47,0.00,CLR,SCT,0.00,633.0,WeatherDisplay:10.37,2013-01-21 17:05:00,
2013-01-21 12:10:00,53.2,32.9,30.02,SW,225,6.0,14.0,46,0.00,CLR,SCT,0.00,636.0,WeatherDisplay:10.37,2013-01-21 17:10:00,
2013-01-21 12:15:00,53.6,32.2,30.02,SW,227,9.0,13.0,44,0.00,CLR,SCT,0.00,640.0,WeatherDisplay:10.37,2013-01-21 17:15:00,
2013-01-21 12:20:00,53.8,31.8,30.01,SW,221,10.0,17.0,43,0.00,CLR,SCT,0.00,640.0,WeatherDisplay:10.37,2013-01-21 17:20:00,
2013-01-21 12:25:00,54.0,32.6,30.00,SW,216,7.0,12.0,44,0.00,CLR,SCT,0.00,642.0,WeatherDisplay:10.37,2013-01-21 17:25:00,
2013-01-21 12:30:00,54.2,32.7,30.00,SW,232,5.0,12.0,44,0.00,CLR,SCT,0.00,642.0,WeatherDisplay:10.37,2013-01-21 17:30:00,
2013-01-21 12:35:00,54.4,32.4,30.00,WSW,239,9.0,13.0,43,0.00,CLR,SCT,0.00,642.0,WeatherDisplay:10.37,2013-01-21 17:35:00,
2013-01-21 12:40:00,54.7,32.6,29.99,SW,224,7.0,14.0,43,0.00,CLR,SCT,0.00,643.0,WeatherDisplay:10.37,2013-01-21 17:40:00,
2013-01-21 12:45:00,55.0,32.3,29.99,SW,221,8.0,13.0,42,0.00,CLR,SCT,0.00,642.0,WeatherDisplay:10.37,2013-01-21 17:45:00,
2013-01-21 12:50:00,55.2,33.6,29.98,SW,234,3.0,13.0,44,0.00,CLR,SCT,0.00,636.0,WeatherDisplay:10.37,2013-01-21 17:50:00,
2013-01-21 12:55:00,55.4,33.3,29.98,WSW,246,3.0,9.0,43,0.00,CLR,SCT,0.00,636.0,WeatherDisplay:10.37,2013-01-21 17:55:00,
2013-01-21 13:00:00,55.7,34.1,29.97,WSW,246,3.0,12.0,44,0.00,CLR,SCT,0.00,636.0,WeatherDisplay:10.37,2013-01-21 18:00:00,
2013-01-21 13:05:00,55.9,32.5,29.97,SW,229,7.0,12.0,41,0.00,CLR,SCT,0.00,631.0,WeatherDisplay:10.37,2013-01-21 18:05:00,
2013-01-21 13:10:00,56.1,32.7,29.97,SW,222,2.0,8.0,41,0.00,CLR,SCT,0.00,629.0,WeatherDisplay:10.37,2013-01-21 18:10:00,
2013-01-21 13:15:00,56.3,32.9,29.97,SW,224,6.0,9.0,41,0.00,CLR,SCT,0.00,624.0,WeatherDisplay:10.37,2013-01-21 18:15:00,
2013-01-21 13:20:00,56.4,33.0,29.96,SW,234,3.0,9.0,41,0.00,CLR,SCT,0.00,619.0,WeatherDisplay:10.37,2013-01-21 18:20:00,
2013-01-21 13:25:00,56.6,33.1,29.95,SW,230,6.0,12.0,41,0.00,CLR,SCT,0.00,619.0,WeatherDisplay:10.37,2013-01-21 18:25:00,
2013-01-21 13:30:00,56.7,33.2,29.95,SW,218,7.0,9.0,41,0.00,CLR,SCT,0.00,615.0,WeatherDisplay:10.37,2013-01-21 18:30:00,
2013-01-21 13:35:00,56.9,33.4,29.94,SW,227,7.0,10.0,41,0.00,CLR,SCT,0.00,612.0,WeatherDisplay:10.37,2013-01-21 18:35:00,
2013-01-21 13:40:00,57.0,32.3,29.94,WSW,252,7.0,12.0,39,0.00,CLR,SCT,0.00,605.0,WeatherDisplay:10.37,2013-01-21 18:40:00,
2013-01-21 13:45:00,57.2,33.1,29.94,WSW,247,6.0,13.0,40,0.00,CLR,SCT,0.00,601.0,WeatherDisplay:10.37,2013-01-21 18:45:00,
2013-01-21 13:50:00,57.4,32.6,29.94,WSW,243,7.0,13.0,39,0.00,CLR,SCT,0.00,596.0,WeatherDisplay:10.37,2013-01-21 18:50:00,
2013-01-21 13:55:00,57.6,32.2,29.93,WSW,251,6.0,9.0,38,0.00,CLR,SCT,0.00,587.0,WeatherDisplay:10.37,2013-01-21 18:55:00,
2013-01-21 14:00:00,57.8,33.6,29.93,WSW,248,2.0,10.0,40,0.00,CLR,SCT,0.00,584.0,WeatherDisplay:10.37,2013-01-21 19:00:00,
2013-01-21 14:05:00,58.2,32.7,29.93,WSW,248,6.0,9.0,38,0.00,CLR,SCT,0.00,577.0,WeatherDisplay:10.37,2013-01-21 19:05:00,
2013-01-21 14:10:00,58.4,32.9,29.93,WSW,237,3.0,12.0,38,0.00,CLR,SCT,0.00,571.0,WeatherDisplay:10.37,2013-01-21 19:10:00,
2013-01-21 14:15:00,58.7,31.1,29.93,WSW,246,6.0,13.0,35,0.00,CLR,SCT,0.00,564.0,WeatherDisplay:10.37,2013-01-21 19:15:00,
2013-01-21 14:20:00,58.8,31.2,29.93,WSW,255,8.0,16.0,35,0.00,CLR,SCT,0.00,559.0,WeatherDisplay:10.37,2013-01-21 19:20:00,
2013-01-21 14:25:00,59.0,31.4,29.93,WSW,252,7.0,16.0,35,0.00,CLR,SCT,0.00,550.0,WeatherDisplay:10.37,2013-01-21 19:25:00,
2013-01-21 14:30:00,59.0,29.9,29.93,WSW,245,8.0,15.0,33,0.00,CLR,SCT,0.00,540.0,WeatherDisplay:10.37,2013-01-21 19:30:00,
2013-01-21 14:35:00,59.0,29.9,29.93,WSW,241,8.0,14.0,33,0.00,CLR,SCT,0.00,529.0,WeatherDisplay:10.37,2013-01-21 19:35:00,
2013-01-21 14:40:00,59.0,30.6,29.93,WSW,237,6.0,12.0,34,0.00,CLR,SCT,0.00,519.0,WeatherDisplay:10.37,2013-01-21 19:40:00,
2013-01-21 14:45:00,59.0,31.4,29.92,SW,232,6.0,10.0,35,0.00,CLR,SCT,0.00,508.0,WeatherDisplay:10.37,2013-01-21 19:45:00,
2013-01-21 14:50:00,59.0,30.6,29.92,SW,234,10.0,15.0,34,0.00,CLR,SCT,0.00,499.0,WeatherDisplay:10.37,2013-01-21 19:50:00,
2013-01-21 14:55:00,59.0,30.6,29.92,WSW,238,8.0,18.0,34,0.00,CLR,SCT,0.00,489.0,WeatherDisplay:10.37,2013-01-21 19:55:00,
2013-01-21 15:00:00,59.0,30.7,29.92,WSW,239,7.0,14.0,34,0.00,CLR,SCT,0.00,478.0,WeatherDisplay:10.37,2013-01-21 20:00:00,
2013-01-21 15:05:00,59.0,29.2,29.92,WSW,250,13.0,20.0,32,0.00,CLR,SCT,0.00,468.0,WeatherDisplay:10.37,2013-01-21 20:05:00,
2013-01-21 15:10:00,59.0,29.9,29.93,WSW,252,9.0,18.0,33,0.00,CLR,SCT,0.00,455.0,WeatherDisplay:10.37,2013-01-21 20:10:00,
2013-01-21 15:20:00,59.0,29.9,29.93,WSW,247,6.0,16.0,33,0.00,CLR,SCT,0.00,431.0,WeatherDisplay:10.37,2013-01-21 20:20:00,
2013-01-21 15:25:00,59.0,30.6,29.92,WSW,251,7.0,14.0,34,0.00,CLR,SCT,0.00,422.0,WeatherDisplay:10.37,2013-01-21 20:25:00,
2013-01-21 15:30:00,59.0,30.6,29.92,WSW,256,6.0,12.0,34,0.00,CLR,SCT,0.00,406.0,WeatherDisplay:10.37,2013-01-21 20:30:00,
2013-01-21 15:35:00,59.0,29.9,29.92,WSW,253,8.0,14.0,33,0.00,CLR,SCT,0.00,392.0,WeatherDisplay:10.37,2013-01-21 20:35:00,
2013-01-21 15:40:00,59.0,29.9,29.92,West,260,8.0,16.0,33,0.00,CLR,SCT,0.00,380.0,WeatherDisplay:10.37,2013-01-21 20:40:00,
2013-01-21 15:45:00,59.0,29.2,29.91,West,260,8.0,12.0,32,0.00,CLR,SCT,0.00,364.0,WeatherDisplay:10.37,2013-01-21 20:45:00,
2013-01-21 15:50:00,59.0,29.9,29.91,WSW,256,5.0,12.0,33,0.00,CLR,SCT,0.00,350.0,WeatherDisplay:10.37,2013-01-21 20:50:00,
2013-01-21 16:00:00,59.0,29.2,29.91,WSW,244,8.0,15.0,32,0.00,CLR,SCT,0.00,323.0,WeatherDisplay:10.37,2013-01-21 21:00:00,
2013-01-21 16:05:00,59.0,29.2,29.91,WSW,251,8.0,13.0,32,0.00,FEW,SCT,0.00,306.0,WeatherDisplay:10.37,2013-01-21 21:05:00,
2013-01-21 16:10:00,59.0,29.9,29.91,WSW,251,6.0,12.0,33,0.00,FEW,SCT,0.00,288.0,WeatherDisplay:10.37,2013-01-21 21:10:00,
2013-01-21 16:15:00,59.0,29.2,29.91,WSW,254,8.0,14.0,32,0.00,FEW,SCT,0.00,276.0,WeatherDisplay:10.37,2013-01-21 21:15:00,
2013-01-21 16:20:00,59.0,29.9,29.92,West,261,10.0,15.0,33,0.00,FEW,SCT,0.00,260.0,WeatherDisplay:10.37,2013-01-21 21:20:00,
2013-01-21 16:25:00,58.9,29.8,29.92,West,263,7.0,16.0,33,0.00,FEW,SCT,0.00,244.0,WeatherDisplay:10.37,2013-01-21 21:25:00,
2013-01-21 16:30:00,58.5,29.5,29.92,West,267,9.0,20.0,33,0.00,FEW,SCT,0.00,229.0,WeatherDisplay:10.37,2013-01-21 21:30:00,
2013-01-21 16:35:00,58.2,27.6,29.92,West,267,14.0,21.0,31,0.00,FEW,SCT,0.00,213.0,WeatherDisplay:10.37,2013-01-21 21:35:00,
2013-01-21 16:40:00,57.8,27.3,29.92,West,264,9.0,17.0,31,0.00,SCT,SCT,0.00,197.0,WeatherDisplay:10.37,2013-01-21 21:40:00,
2013-01-21 16:45:00,57.5,26.2,29.92,West,270,10.0,20.0,30,0.00,SCT,SCT,0.00,181.0,WeatherDisplay:10.37,2013-01-21 21:45:00,
2013-01-21 16:50:00,57.1,26.7,29.92,West,272,7.0,15.0,31,0.00,SCT,SCT,0.00,169.0,WeatherDisplay:10.37,2013-01-21 21:50:00,
2013-01-21 16:55:00,56.9,26.5,29.92,West,270,8.0,16.0,31,0.00,SCT,SCT,0.00,153.0,WeatherDisplay:10.37,2013-01-21 21:55:00,
2013-01-21 17:00:00,56.7,26.4,29.92,West,263,8.0,12.0,31,0.00,SCT,SCT,0.00,135.0,WeatherDisplay:10.37,2013-01-21 22:00:00,
2013-01-21 17:05:00,56.5,27.0,29.93,West,269,5.0,8.0,32,0.00,SCT,SCT,0.00,120.0,WeatherDisplay:10.37,2013-01-21 22:05:00,
2013-01-21 17:10:00,56.1,25.8,29.93,West,280,6.0,13.0,31,0.00,SCT,SCT,0.00,97.0,WeatherDisplay:10.37,2013-01-21 22:10:00,
2013-01-21 17:15:00,55.5,26.1,29.93,West,281,7.0,14.0,32,0.00,BKN,SCT,0.00,77.0,WeatherDisplay:10.37,2013-01-21 22:15:00,
2013-01-21 17:20:00,54.9,25.5,29.93,West,275,7.0,15.0,32,0.00,BKN,SCT,0.00,35.0,WeatherDisplay:10.37,2013-01-21 22:20:00,
2013-01-21 17:25:00,54.2,25.0,29.93,West,270,9.0,16.0,32,0.00,BKN,SCT,0.00,12.0,WeatherDisplay:10.37,2013-01-21 22:25:00,
2013-01-21 17:30:00,53.7,24.5,29.94,West,270,8.0,16.0,32,0.00,BKN,SCT,0.00,11.0,WeatherDisplay:10.37,2013-01-21 22:30:00,
2013-01-21 17:35:00,53.2,24.1,29.94,West,270,8.0,12.0,32,0.00,BKN,SCT,0.00,7.0,WeatherDisplay:10.37,2013-01-21 22:35:00,
2013-01-21 17:40:00,52.8,24.5,29.94,West,267,7.0,12.0,33,0.00,BKN,SCT,0.00,5.0,WeatherDisplay:10.37,2013-01-21 22:40:00,
2013-01-21 17:45:00,52.4,24.1,29.94,West,267,6.0,13.0,33,0.00,BKN,SCT,0.00,0.0,WeatherDisplay:10.37,2013-01-21 22:45:00,
2013-01-21 17:50:00,52.0,23.8,29.95,West,269,7.0,18.0,33,0.00,BKN,SCT,0.00,0.0,WeatherDisplay:10.37,2013-01-21 22:50:00,
2013-01-21 17:55:00,51.7,24.2,29.95,West,272,5.0,9.0,34,0.00,BKN,SCT,0.00,0.0,WeatherDisplay:10.37,2013-01-21 22:55:00,
2013-01-21 18:00:00,51.3,23.1,29.95,West,277,7.0,15.0,33,0.00,BKN,SCT,0.00,0.0,WeatherDisplay:10.37,2013-01-21 23:00:00,
2013-01-21 18:05:00,50.9,23.5,29.96,West,275,5.0,16.0,34,0.00,BKN,SCT,0.00,0.0,WeatherDisplay:10.37,2013-01-21 23:05:00,
2013-01-21 18:10:00,50.6,23.2,29.95,West,277,3.0,8.0,34,0.00,BKN,SCT,0.00,0.0,WeatherDisplay:10.37,2013-01-21 23:10:00,
2013-01-21 18:15:00,50.2,22.9,29.95,WNW,289,3.0,10.0,34,0.00,BKN,SCT,0.00,0.0,WeatherDisplay:10.37,2013-01-21 23:15:00,
2013-01-21 18:20:00,49.9,23.3,29.96,NW,304,3.0,7.0,35,0.00,BKN,SCT,0.00,0.0,WeatherDisplay:10.37,2013-01-21 23:20:00,
2013-01-21 18:25:00,49.5,22.9,29.96,NW,310,2.0,12.0,35,0.00,BKN,SCT,0.00,0.0,WeatherDisplay:10.37,2013-01-21 23:25:00,
2013-01-21 18:30:00,49.1,23.3,29.97,WNW,302,1.0,7.0,36,0.00,BKN,SCT,0.00,0.0,WeatherDisplay:10.37,2013-01-21 23:30:00,
2013-01-21 18:35:00,48.7,22.9,29.97,WNW,287,1.0,7.0,36,0.00,BKN,SCT,0.00,0.0,WeatherDisplay:10.37,2013-01-21 23:35:00,
2013-01-21 18:40:00,48.3,22.5,29.97,West,267,2.0,9.0,36,0.00,BKN,SCT,0.00,0.0,WeatherDisplay:10.37,2013-01-21 23:40:00,
2013-01-21 18:45:00,47.9,22.2,29.97,West,272,3.0,8.0,36,0.00,BKN,SCT,0.00,0.0,WeatherDisplay:10.37,2013-01-21 23:45:00,
2013-01-21 18:50:00,47.6,21.9,29.97,West,277,5.0,10.0,36,0.00,BKN,SCT,0.00,0.0,WeatherDisplay:10.37,2013-01-21 23:50:00,
2013-01-21 18:55:00,47.4,21.7,29.97,West,275,5.0,10.0,36,0.00,BKN,SCT,0.00,0.0,WeatherDisplay:10.37,2013-01-21 23:55:00,
2013-01-21 19:00:00,47.2,20.9,29.97,West,271,7.0,12.0,35,0.00,BKN,SCT,0.00,0.0,WeatherDisplay:10.37,2013-01-22 00:00:00,
2013-01-21 19:05:00,47.0,20.0,29.97,West,269,9.0,20.0,34,0.00,BKN,SCT,0.00,0.0,WeatherDisplay:10.37,2013-01-22 00:05:00,
2013-01-21 19:10:00,46.9,20.6,29.97,West,269,7.0,16.0,35,0.00,BKN,SCT,0.00,0.0,WeatherDisplay:10.37,2013-01-22 00:10:00,
2013-01-21 19:15:00,46.8,19.8,29.97,West,279,7.0,14.0,34,0.00,BKN,SCT,0.00,0.0,WeatherDisplay:10.37,2013-01-22 00:15:00,
2013-01-21 19:20:00,46.6,19.0,29.97,WNW,282,7.0,12.0,33,0.00,BKN,SCT,0.00,0.0,WeatherDisplay:10.37,2013-01-22 00:20:00,
2013-01-21 19:25:00,46.4,18.8,29.98,West,279,8.0,18.0,33,0.00,BKN,SCT,0.00,0.0,WeatherDisplay:10.37,2013-01-22 00:25:00,
2013-01-21 19:30:00,46.3,18.7,29.98,West,279,6.0,13.0,33,0.00,BKN,SCT,0.00,0.0,WeatherDisplay:10.37,2013-01-22 00:30:00,
2013-01-21 19:35:00,46.1,18.6,29.99,West,281,5.0,12.0,33,0.00,BKN,SCT,0.00,0.0,WeatherDisplay:10.37,2013-01-22 00:35:00,
2013-01-21 19:40:00,46.0,19.1,29.99,WNW,284,2.0,10.0,34,0.00,BKN,SCT,0.00,0.0,WeatherDisplay:10.37,2013-01-22 00:40:00,
2013-01-21 19:45:00,45.8,19.0,29.99,West,279,3.0,13.0,34,0.00,BKN,SCT,0.00,0.0,WeatherDisplay:10.37,2013-01-22 00:45:00,
2013-01-21 19:50:00,45.6,18.8,29.99,West,275,2.0,9.0,34,0.00,BKN,SCT,0.00,0.0,WeatherDisplay:10.37,2013-01-22 00:50:00,
2013-01-21 19:55:00,45.4,18.6,29.99,West,267,1.0,9.0,34,0.00,BKN,SCT,0.00,0.0,WeatherDisplay:10.37,2013-01-22 00:55:00,
2013-01-21 20:00:00,45.3,18.5,29.99,West,262,5.0,10.0,34,0.00,BKN,SCT,0.00,0.0,WeatherDisplay:10.37,2013-01-22 01:00:00,
2013-01-21 20:05:00,45.1,18.4,29.99,West,262,5.0,8.0,34,0.00,BKN,SCT,0.00,0.0,WeatherDisplay:10.37,2013-01-22 01:05:00,
2013-01-21 20:10:00,45.0,18.3,29.99,West,264,3.0,8.0,34,0.00,BKN,SCT,0.00,0.0,WeatherDisplay:10.37,2013-01-22 01:10:00,
2013-01-21 20:15:00,44.9,18.9,29.99,West,265,2.0,7.0,35,0.00,BKN,SCT,0.00,0.0,WeatherDisplay:10.37,2013-01-22 01:15:00,
2013-01-21 20:20:00,44.7,18.7,29.99,West,262,3.0,6.0,35,0.00,BKN,SCT,0.00,0.0,WeatherDisplay:10.37,2013-01-22 01:20:00,
2013-01-21 20:25:00,44.6,18.6,29.99,West,263,0.0,2.0,35,0.00,BKN,SCT,0.00,0.0,WeatherDisplay:10.37,2013-01-22 01:25:00,
2013-01-21 20:30:00,44.5,19.2,29.99,West,264,0.0,1.0,36,0.00,BKN,SCT,0.00,0.0,WeatherDisplay:10.37,2013-01-22 01:30:00,
2013-01-21 20:35:00,44.3,19.0,29.99,West,264,0.0,0.0,36,0.00,BKN,SCT,0.00,0.0,WeatherDisplay:10.37,2013-01-22 01:35:00,
2013-01-21 20:40:00,44.0,19.4,29.99,West,266,2.0,6.0,37,0.00,BKN,SCT,0.00,0.0,WeatherDisplay:10.37,2013-01-22 01:40:00,
2013-01-21 20:45:00,43.7,19.1,29.98,West,267,0.0,2.0,37,0.00,BKN,SCT,0.00,0.0,WeatherDisplay:10.37,2013-01-22 01:45:00,
2013-01-21 20:50:00,43.4,19.4,29.99,West,268,0.0,2.0,38,0.00,BKN,SCT,0.00,0.0,WeatherDisplay:10.37,2013-01-22 01:50:00,
2013-01-21 20:55:00,43.1,19.2,29.98,West,268,0.0,4.0,38,0.00,BKN,SCT,0.00,0.0,WeatherDisplay:10.37,2013-01-22 01:55:00,
2013-01-21 21:00:00,42.8,18.9,29.99,West,268,0.0,3.0,38,0.00,BKN,SCT,0.00,0.0,WeatherDisplay:10.37,2013-01-22 02:00:00,
2013-01-21 21:05:00,42.6,19.3,29.99,West,268,0.0,2.0,39,0.00,BKN,SCT,0.00,0.0,WeatherDisplay:10.37,2013-01-22 02:05:00,
2013-01-21 21:10:00,42.4,19.2,29.99,West,268,0.0,0.0,39,0.00,BKN,SCT,0.00,0.0,WeatherDisplay:10.37,2013-01-22 02:10:00,
2013-01-21 21:15:00,42.2,19.6,29.99,West,268,0.0,1.0,40,0.00,BKN,SCT,0.00,0.0,WeatherDisplay:10.37,2013-01-22 02:15:00,
2013-01-21 21:20:00,42.0,18.8,29.99,West,268,0.0,2.0,39,0.00,BKN,SCT,0.00,0.0,WeatherDisplay:10.37,2013-01-22 02:20:00,
2013-01-21 21:25:00,41.8,19.2,29.99,West,268,0.0,1.0,40,0.00,BKN,SCT,0.00,0.0,WeatherDisplay:10.37,2013-01-22 02:25:00,
2013-01-21 21:30:00,41.5,19.0,30.00,West,268,0.0,1.0,40,0.00,BKN,SCT,0.00,0.0,WeatherDisplay:10.37,2013-01-22 02:30:00,
2013-01-21 21:35:00,41.2,19.3,30.00,West,268,0.0,1.0,41,0.00,BKN,SCT,0.00,0.0,WeatherDisplay:10.37,2013-01-22 02:35:00,
2013-01-21 21:40:00,40.9,20.1,30.00,West,268,0.0,1.0,43,0.00,BKN,SCT,0.00,0.0,WeatherDisplay:10.37,2013-01-22 02:40:00,
2013-01-21 21:45:00,40.4,19.1,30.00,West,268,1.0,5.0,42,0.00,BKN,SCT,0.00,0.0,WeatherDisplay:10.37,2013-01-22 02:45:00,
2013-01-21 21:50:00,40.2,18.9,30.00,West,267,0.0,3.0,42,0.00,BKN,SCT,0.00,0.0,WeatherDisplay:10.37,2013-01-22 02:50:00,
2013-01-21 21:55:00,40.0,18.8,29.99,West,267,0.0,1.0,42,0.00,BKN,SCT,0.00,0.0,WeatherDisplay:10.37,2013-01-22 02:55:00,
2013-01-21 22:00:00,39.9,18.6,29.99,West,267,0.0,1.0,42,0.00,BKN,SCT,0.00,0.0,WeatherDisplay:10.37,2013-01-22 03:00:00,
2013-01-21 22:05:00,39.8,18.5,29.99,West,267,0.0,2.0,42,0.00,BKN,SCT,0.00,0.0,WeatherDisplay:10.37,2013-01-22 03:05:00,
2013-01-21 22:10:00,39.7,18.5,29.99,West,267,1.0,5.0,42,0.00,BKN,SCT,0.00,0.0,WeatherDisplay:10.37,2013-01-22 03:10:00,
2013-01-21 22:15:00,39.6,18.4,29.99,West,267,0.0,2.0,42,0.00,BKN,SCT,0.00,0.0,WeatherDisplay:10.37,2013-01-22 03:15:00,
2013-01-21 22:20:00,39.6,18.4,30.00,West,265,0.0,5.0,42,0.00,BKN,SCT,0.00,0.0,WeatherDisplay:10.37,2013-01-22 03:20:00,
2013-01-21 22:25:00,39.6,18.4,30.00,West,265,0.0,4.0,42,0.00,BKN,SCT,0.00,0.0,WeatherDisplay:10.37,2013-01-22 03:25:00,
2013-01-21 22:30:00,39.5,18.3,30.00,West,265,0.0,4.0,42,0.00,BKN,SCT,0.00,0.0,WeatherDisplay:10.37,2013-01-22 03:30:00,
2013-01-21 22:35:00,39.4,18.2,30.00,West,265,0.0,3.0,42,0.00,BKN,SCT,0.00,0.0,WeatherDisplay:10.37,2013-01-22 03:35:00,
2013-01-21 22:40:00,39.4,18.2,30.00,West,261,1.0,6.0,42,0.00,BKN,SCT,0.00,0.0,WeatherDisplay:10.37,2013-01-22 03:40:00,
2013-01-21 22:45:00,39.3,17.6,30.00,WSW,258,2.0,4.0,41,0.00,BKN,SCT,0.00,0.0,WeatherDisplay:10.37,2013-01-22 03:45:00,
2013-01-21 22:50:00,39.4,17.6,30.00,WSW,256,2.0,6.0,41,0.00,BKN,SCT,0.00,0.0,WeatherDisplay:10.37,2013-01-22 03:50:00,
2013-01-21 22:55:00,39.5,17.7,30.00,WSW,254,3.0,8.0,41,0.00,BKN,SCT,0.00,0.0,WeatherDisplay:10.37,2013-01-22 03:55:00,
2013-01-21 23:00:00,39.7,17.3,30.00,WSW,252,2.0,6.0,40,0.00,BKN,SCT,0.00,0.0,WeatherDisplay:10.37,2013-01-22 04:00:00,
2013-01-21 23:05:00,39.9,16.9,30.00,WSW,255,5.0,14.0,39,0.00,BKN,SCT,0.00,0.0,WeatherDisplay:10.37,2013-01-22 04:05:00,
2013-01-21 23:10:00,40.1,17.1,30.00,WSW,254,2.0,14.0,39,0.00,BKN,SCT,0.00,0.0,WeatherDisplay:10.37,2013-01-22 04:10:00,
2013-01-21 23:15:00,40.3,16.7,30.00,West,259,3.0,7.0,38,0.00,BKN,SCT,0.00,0.0,WeatherDisplay:10.37,2013-01-22 04:15:00,
2013-01-21 23:20:00,40.4,16.8,30.00,West,265,2.0,8.0,38,0.00,BKN,SCT,0.00,0.0,WeatherDisplay:10.37,2013-01-22 04:20:00,
2013-01-21 23:25:00,40.5,16.8,30.00,West,267,0.0,4.0,38,0.00,BKN,SCT,0.00,0.0,WeatherDisplay:10.37,2013-01-22 04:25:00,
2013-01-21 23:30:00,40.4,16.8,30.00,West,269,0.0,5.0,38,0.00,BKN,SCT,0.00,0.0,WeatherDisplay:10.37,2013-01-22 04:30:00,
2013-01-21 23:35:00,40.3,16.7,30.00,West,269,0.0,2.0,38,0.00,BKN,SCT,0.00,0.0,WeatherDisplay:10.37,2013-01-22 04:35:00,
2013-01-21 23:40:00,40.2,17.2,30.01,West,269,0.0,3.0,39,0.00,BKN,SCT,0.00,0.0,WeatherDisplay:10.37,2013-01-22 04:40:00,
2013-01-21 23:45:00,40.0,17.0,30.01,West,269,0.0,1.0,39,0.00,BKN,SCT,0.00,0.0,WeatherDisplay:10.37,2013-01-22 04:45:00,
2013-01-21 23:50:00,39.8,16.2,30.01,West,269,0.0,6.0,38,0.00,BKN,SCT,0.00,0.0,WeatherDisplay:10.37,2013-01-22 04:50:00,
2013-01-21 23:55:00,39.6,16.0,30.01,West,269,0.0,1.0,38,0.00,BKN,SCT,0.00,0.0,WeatherDisplay:10.37,2013-01-22 04:55:00,